Zurück zum Katalog

COSMOS 622

AktivMilitärLEO
NORAD 6990·PAYLOAD·🇷🇺 Russia

Gestartet Dec 19, 1973 von Plesetsk Cosmodrome

Loading…

Nächste Überflüge (nächste 24 Stunden)

TLE

AktuellSource: Space-Track

Epoche: Sep 14, 2026, 15:14 UTC

1 06990U 73104F   26257.63535253  .00000005  00000-0  12275-3 0  9998
2 06990  74.0282 131.3840 0073866 182.8621 205.2953 12.59122363423893

Verfolge COSMOS 622 in Echtzeit mit AllMySat

Download on the App Store